Back to catalog

GORIZONT 25

AliveCommunicationsGEO
NORAD 21922·PAYLOAD·🇷🇺 Russia

Launched Apr 2, 1992 from Baikonur Cosmodrome

Loading…

TLE

FreshSource: Space-Track

Epoch: Sep 14, 2026, 03:13 UTC

1 21922U 92017A   26257.13407034 -.00000261  00000-0  00000-0 0  9999
2 21922  13.4658 341.9641 0024458 118.6726 233.0361  0.99848860125825

Track GORIZONT 25 in real time with AllMySat

Download on the App Store